Location: ????????
(55.1591°N, 39.1782°E)
Time: 20:35:41
(UTC+00:00)

NOSS 3-1 (A) - Visible Passes

Search period start: 12 July 2024 00:00
Search period end: 22 July 2024 00:00
Orbit: 657 x 1552 km, 63.4° (Epoch: 07 July)

Date Brightness Start Highest point End Pass type
(mag) Time Alt. Az. Time Alt. Az. Time Alt. Az.
12 Jul 4.9 19:54:49 10° SE 19:56:55 13° ESE 19:59:14 10° E visible
12 Jul 3.3 21:42:11 16° SSW 21:46:09 59° SE 21:52:17 10° NE visible
12 Jul 4.1 23:31:49 10° W 23:37:09 53° NNW 23:43:48 10° NE visible
13 Jul 3.7 20:57:56 18° S 21:01:17 40° ESE 21:06:54 10° NE visible
13 Jul 3.7 22:46:30 10° WSW 22:51:48 65° NNW 22:58:25 10° NE visible
14 Jul 4.2 20:13:38 16° SSE 20:16:32 26° ESE 20:21:21 10° ENE visible
14 Jul 3.3 22:01:20 10° SW 22:06:33 84° NW 22:13:05 10° NE visible
14 Jul 4.7 23:52:43 10° W 23:58:10 44° N 00:04:54 10° ENE visible
15 Jul 4.7 19:29:15 12° SE 19:31:56 17° ESE 19:35:28 10° ENE visible
15 Jul 3.2 21:16:36 11° SW 21:21:27 73° SE 21:27:45 10° NE visible
15 Jul 4.4 23:07:19 10° W 23:12:41 48° NNW 23:19:22 10° ENE visible
16 Jul 3.4 20:32:06 13° SSW 20:36:29 50° SE 20:42:25 10° NE visible
16 Jul 4.0 22:21:58 10° WSW 22:27:17 57° NNW 22:33:55 10° NE visible
17 Jul 3.8 19:47:28 12° S 19:51:40 33° ESE 19:56:59 10° ENE visible
17 Jul 3.5 21:36:43 10° WSW 21:41:59 72° NNW 21:48:34 10° NE visible
17 Jul 4.8 23:28:15 10° WNW 23:33:45 42° N 23:40:32 10° ENE visible
18 Jul 4.3 19:03:10 10° SSE 19:06:59 22° ESE 19:11:20 10° ENE visible
18 Jul 3.2 20:51:37 10° SW 20:56:47 86° SE 21:03:14 10° NE visible
18 Jul 4.6 22:42:50 10° W 22:48:15 45° NNW 22:54:56 10° ENE visible
19 Jul 3.2 20:06:43 10° SSW 20:11:44 62° SE 20:17:54 10° NE visible
19 Jul 4.2 21:57:27 10° W 22:02:47 52° NNW 22:09:27 10° NE visible
19 Jul 5.0 23:49:07 10° WNW 23:54:52 42° N 00:01:58 10° ENE visible
20 Jul 3.5 19:22:05 10° SSW 19:26:50 42° SE 19:32:32 10° NE visible
20 Jul 3.8 21:12:08 10° WSW 21:17:25 63° NNW 21:24:02 10° NE visible
20 Jul 4.9 23:03:46 10° WNW 23:09:20 41° N 23:16:13 10° ENE visible
21 Jul 4.0 18:37:49 10° S 18:42:05 28° ESE 18:47:01 10° ENE visible
21 Jul 3.4 20:26:56 10° SW 20:32:10 81° NW 20:38:42 10° NE visible
21 Jul 4.8 22:18:21 10° W 22:23:48 43° N 22:30:33 10° ENE visible
